Regional Weather Roundup
Issued by NWS

Home | Current Version | Previous Version | Text Only | Print | Product List | Glossary On
Versions: 1 2 3 4 5 6 7 8 9 10 11 12 13 14 15 16 17 18 19 20 21 22 23 24 25 26 27 28 29 30 31 32 33 34 35 36 37 38 39 40 41 42 43 44 45 46 47 48 49 50
000
ASUS43 KMKX 272121
RWRWI

WISCONSIN REGIONAL WEATHER ROUNDUP
NATIONAL WEATHER SERVICE MILWAUKEE/SULLIVAN WI
300 PM CST THU NOV 27 2014

NOTE: "FAIR" INDICATES FEW OR NO CLOUDS BELOW 12,000 FEET WITH NO
SIGNIFICANT WEATHER AND/OR OBSTRUCTIONS TO VISIBILITY.

WIZ001-002-006>008-014>016-023>028-272200-
NORTHWEST WISCONSIN

CITY           SKY/WX    TMP DP  RH WIND       PRES   REMARKS
SUPERIOR ARPT  SUNNY     11  -4  49 W3        30.42F
ASHLAND        CLEAR     10   0  63 SW6       30.41S WCI   0
HAYWARD        MOSUNNY    8  -1  66 W6        30.38S WCI  -2
SIREN          SUNNY     10  -5  50 W5        30.41F WCI   1
CUMBERLAND     SUNNY      9  -6  52 W3        30.39S
RICE LAKE      SUNNY      9  -5  53 W6        30.42S WCI  -1
CHETEK         SUNNY      9  -5  54 W3        30.41S
LADYSMITH      SUNNY     10  -2  57 W5        30.39S WCI   2
EAU CLAIRE     SUNNY      9  -4  55 W7        30.42S WCI  -2
MENOMONIE      FAIR      11  -4  50 W6        30.44R WCI   2
NEW RICHMOND   SUNNY      9  -5  51 W3        30.43S
OSCEOLA        SUNNY     10  -6  49 CALM      30.46F
$$

WIZ003>005-009-010-017-018-272200-
NORTH CENTRAL WISCONSIN

CITY           SKY/WX    TMP DP  RH WIND       PRES   REMARKS
MANITOWISH WTR PTCLDY    10   1  67 N6        30.30S WCI   0
ARBOR VITAE    PTCLDY    10   2  71 NW3       30.30R
WOODRUFF       PTCLDY    10   2  71 NW3       30.30R
RHINELANDER    CLEAR     10   0  63 NW7       30.29S WCI  -1
EAGLE RIVER    FLURRIES  10   2  69 NW5       30.28S WCI   2
LAND O LAKES   CLOUDY    10   4  75 N3        30.28S HAZE
PHILLIPS       MOSUNNY   10  -1  61 NW3       30.32S
TOMAHAWK       SUNNY     12   1  63 CALM      30.31S
MEDFORD        SUNNY     11  -1  58 W6        30.32S WCI   2
MERRILL        SUNNY     14   0  52 NW7       30.32S WCI   4
$$

WIZ029-030-035-036-043>047-272200-
CENTRAL WISCONSIN

CITY           SKY/WX    TMP DP  RH WIND       PRES   REMARKS
WAUSAU         SUNNY     13   2  61 W7        30.32S WCI   3
MOSINEE        SUNNY     12   7  79 W8        30.34S WCI   1
MARSHFIELD     SUNNY     10  -1  61 NW10      30.35S WCI  -4
STEVENS POINT  MOSUNNY   12   2  64 W6        30.35S WCI   3
WAUPACA        SUNNY     19   6  58 NW8       30.37R WCI   9
WAUTOMA        SUNNY     16   5  61 NW12      30.37S WCI   3
WISC RAPIDS    SUNNY     13   0  56 NW9       30.38S WCI   1
CAMP DOUGLAS   SUNNY     14   5  68 W9        30.39R WCI   2
$$

WIZ011>013-019>022-031-037>040-048>050-272200-
NORTHEAST WISCONSIN

CITY           SKY/WX    TMP DP  RH WIND       PRES   REMARKS
ANTIGO         SUNNY     11   1  64 N6        30.29S WCI   1
SHAWANO        SUNNY     19   5  54 W9        30.35S WCI   8
OCONTO         CLEAR     17   3  54 N6        30.35R WCI   9
STURGEON BAY   MOCLDY    18   3  53 NW9       30.33S WCI   6
GREEN BAY      SUNNY     18   4  54 NW12      30.35S WCI   5
MANITOWOC      SUNNY     18   8  65 NW12      30.35R WCI   5
APPLETON       PTSUNNY   16   5  62 NW9       30.35R WCI   4
CLINTONVILLE   MOSUNNY   18   5  57 NW9       30.35S WCI   6
OSHKOSH        SUNNY     17   6  62 MISG      30.35R
$$

WIZ032>034-041-042-053>061-272200-
SOUTHWEST WISCONSIN

CITY           SKY/WX    TMP DP  RH WIND       PRES   REMARKS
LA CROSSE      SUNNY     14   0  53 NW8       30.45R WCI   3
SPARTA         SUNNY     13  -1  54 NW7       30.42S WCI   3
VIROQUA        SUNNY     12  -2  53 W8        30.37S WCI   1
BOSCOBEL       SUNNY     18  -2  41 NW8       30.43R WCI   8
PRAIRIE DU CHI SUNNY     17  -2  44 W9        30.44R WCI   5
PLATTEVILLE    SUNNY     18   4  55 NW10      30.39R WCI   6
$$

WIZ056-057-062-063-064-067-068-272200-
SOUTH CENTRAL WISCONSIN

CITY           SKY/WX    TMP DP  RH WIND       PRES   REMARKS
REEDSBURG      SUNNY     15   5  65 NW8       30.38S WCI   3
BARABOO/DELLS  SUNNY     15   6  66 NW7       30.37S WCI   5
LONE ROCK      SUNNY     21   3  45 NW6       30.41R WCI  13
MINERAL POINT  SUNNY     19   3  49 NW9       30.36R WCI   9
MADISON        MOSUNNY   17   7  64 NW7       30.37R WCI   8
MIDDLETON      SUNNY     19   8  62 NW8       30.37R WCI   8
WATERTOWN      CLOUDY    17  10  74 N8        30.36R WCI   7
MONROE         MOSUNNY   21  10  63 NW6       30.35R WCI  14
JANESVILLE     PTSUNNY   21  12  68 NW12      30.36R WCI   9
$$

WIZ051-052-058>065-066-070>072-272200-
SOUTHEAST WISCONSIN

CITY           SKY/WX    TMP DP  RH WIND       PRES   REMARKS
MILWAUKEE      FLURRIES  22  11  62 NW8       30.35R WCI  12
WAUKESHA       FLURRIES  18  10  73 NW10      30.35R WCI   6
MILWAUKEE/TIMM PTSUNNY   19   9  63 W10       30.35R WCI   8
RACINE         CLOUDY    22  10  60 NW10      30.36R WCI  11
BURLINGTON     FLURRIES  18  12  76 NW10      30.36R WCI   6
KENOSHA        FLURRIES  21  11  65 NW10      30.35R WCI  10
FOND DU LAC    PTSUNNY   17   7  64 NW7       30.35S WCI   8
SHEBOYGAN      SUNNY     18   6  59 NW9       30.35R WCI   7
WEST BEND      SUNNY     19   9  63 NW8       30.35R WCI   9
JUNEAU         MOSUNNY   15   8  76 NW5       30.37R WCI   7
$$

LSZ147-162-272200-
LAKE SUPERIOR

STATION/POSITION TIME  TEMP    WIND        PRES    WAVE
                       AIR SEA DIR/SP/G            HT/PER
                 (UTC) (F)     (DEG/KT/KT) (MB)    (FT/S)
DEVILS ISLAND    2100   12     250/ 10/ 12 1030.9F
PORT WING        2000   10     220/  8/ 11 1030.5S
SAXON HARBOR     2000   13      CALM  /  7 1029.1F
$$

LMZ867-665-643>646-272200-
LAKE MICHIGAN

STATION/POSITION TIME  TEMP    WIND        PRES    WAVE
                       AIR SEA DIR/SP/G            HT/PER
                 (UTC) (F)     (DEG/KT/KT) (MB)    (FT/S)
CHAMBERS ISLAND  2000   20     310/ 14/ 18 1027.1R
N MID LAKE BUOY  2050   20 42  320/ 17/ 23 1026.8R   4/ 5
NORTHPORT PIER   2009   18     320/ 15/ 23 1026.4R
SISTER BAY       2013          320/ 18/ 22   N/A
ALGOMA LAKESHORE 1913          340/ 12/ 15   N/A
KEWAUNEE LAKESHO 2100   18     330/  9/ 13 1026.5R
SHEBOYGAN LAKESH 2100   18 34  320/ 13/ 15 1029.2R
PORT WASHINGTON  2040   20     320/  5/ 12 1028.8R
MILWAUKEE LAKESH 2100   22     320/  9/ 13   N/A
S MID LAKE BUOY  2050   26 42  330/ 17/ 21 1027.3R   6/ 7
KENOSHA   LAKESH 2100   21     310/ 11/ 14 1027.8R
$$

TC  - TEMPERATURE IN CELSIUS
VSB - VISIBILITY IN STATUTE MILES
WCI - WIND CHILL INDEX
HX  - HEAT INDEX




USA.gov is the U.S. government's official web portal to all federal, state and local government web resources and services.